www.pogodaiklimat.ru

Погода и климат >> Архив погоды >> Мексика >> Rio Verde


ПОГОДА в Rio Verde

  • Прогноз погоды в Rio Verde
  • Монитор погоды в Rio Verde
  • Климат города

АРХИВ ПОГОДЫ в Rio Verde

Время (UTC), дата Ветер
(напр.,м/с)
 
Видим.   Явления Облачность Т
(С)
Тd
(С)
f
(%)
Тe
(С)
Тes
(С)
Комфортность P
(гПа)
Po
(гПа)
Тmin
(С)
Tmax
(С)
R
(мм)
R24
(мм)
S
(см)
12 12.12 штиль 0 10 км 9/0 2000 м
[As op]
+10.1 +9.2 94 +9 +9 1020.7 908.0 +9.4 +20.4
15 12.12 штиль 0 18 км 10/0
[As op]
+11.4 +10.2 92 +11 +11 1022.4 909.1
18 12.12 штиль 0 20 км 8/0
[Ac trans]
+18.1 +14.2 78 +18 +26 1020.1 907.4 +9.4 +18.8
21 12.12 штиль 0 25 км 4/0
[Cs]
+23.6 +16.9 66 +27 +36 жарко 1013.9 903.0
00 13.12 штиль 0 18 км 9/0
[Ac trans]
+22.4 +17.1 72 +27 +27 душно 1011.3 901.8 +9.4 +25.0
03 13.12 Ю 1 10 км ясно +19.0 +16.9 88 +22 +22 комфорт 1011.1 902.4
06 13.12 ЮВ 2 10 км 5/0
[Ac trans]
+17.4 +15.6 89 +18 +18 1012.1 903.5 +25.0
12 13.12 штиль 0 12 км 3/3 570 м
[Cu med, cong]
+15.6 +14.4 93 +15 +15 1010.7 901.2 +15.1 +25.0
15 13.12 штиль 0 20 км 6/0
[Ac trans]
+18.6 +15.6 83 +19 +22 1012.5 902.5
18 13.12 СЗ 2 25 км 8/0
[Ac cuf]
+26.1 +19.8 68 +32 +36 очень
душно
1010.1 900.9 +14.8 +26.8
00 14.12 Ю 1 20 км 8/0
[Ac trans]
+25.0 +19.2 70 +30 +30 душно 1008.2 901.0 +14.8 +28.7
03 14.12 ЮВ 2 10 км ясно +20.0 +16.1 78 +23 +23 комфорт 1010.0 903.0
06 14.12 ЮВ 1 10 км ясно +16.3 +14.3 88 +17 +17 1012.8 904.9 +28.7
12 14.12 Ю 1 10 км 8/0 2000 м
[As op]
+10.2 +8.0 86 +10 +10 1017.3 906.5 +9.4 +28.7
15 14.12 штиль 0 20 км 4/0
[Ac trans]
+12.9 +9.6 80 +12 +15 1021.2 909.0
18 14.12 З 1 25 км 6/0
[Ac trans]
+20.9 +12.5 59 +24 +32 комфорт 1020.4 908.5 +9.4 +21.6
00 15.12 Ю 3 10 км 4/0
[Ac trans]
+19.8 +15.7 77 +22 +22 комфорт 1018.5 908.5 +9.4 +25.8
03 15.12 Ю 2 10 км ясно +16.9 +14.2 84 +17 +17 1020.2 910.6
12 15.12 штиль 0 10 км 10/0
[As op]
+3.0 +2.6 97 +2 +2 1025.3 911.6 +2.0 +25.8
15 15.12 ЮЗ 1 15 км ясно +5.0 +4.0 93 +4 +7 1032.5 916.6
18 15.12 ЮЗ 1 20 км ясно +15.4 +4.1 47 +16 +29 опасность
простуды
1028.8 913.5 +2.0 +16.0
21 15.12 З 1 10 км ясно +19.0 +2.2 33 +20 +28 1024.1 910.3
00 16.12 З 1 25 км ясно +17.8 +3.8 39 +19 +19 1022.1 909.8 +2.0 +21.0
03 16.12 З 1 10 км ясно +11.8 +4.5 61 +12 +12 1024.1 912.6
06 16.12 ЮЗ 1 10 км ясно +8.6 +7.5 93 +8 +8 1027.0 914.8 +2.0 +21.0
12 16.12 штиль 0 10 км ясно +2.0 +1.6 97 +1 +1 1027.0 913.0 +0.1 +21.0
15 16.12 З 1 15 км ясно +5.6 +5.2 97 +4 +7 1031.8 915.7
18 16.12 Ю 1 25 км ясно +16.8 +12.6 76 +18 +30 опасность
простуды
1029.1 913.7 +1.0 +17.0
21 16.12 З 1 25 км ясно +21.4 +9.5 47 +23 +31 комфорт 1024.3 910.6
00 17.12 Ю 1 15 км ясно +18.0 +3.8 39 +19 +19 1022.6 910.6 +1.0 +22.5
03 17.12 Ю 1 10 км 8/0
[Ac cuf]
+12.4 +7.0 70 +13 +13 1023.3 912.2
06 17.12 Ю 1 10 км 8/0
[Ac cuf]
+11.0 +10.0 94 +11 +11 1024.3 912.9 +1.0 +22.5
12 17.12 Ю 1 10 км ясно +4.4 +1.8 83 +3 +3 1029.5 912.1 +3.0 +22.5
15 17.12 Ю 2 20 км 5/0
[Ac trans]
+6.4 +3.6 82 +4 +6 1028.5 913.2
18 17.12 Ю 2 25 км 4/0
[Ac trans]
+18.0 +13.1 73 +19 +27 1026.0 911.3 +3.0 +19.0
21 17.12 штиль 0 25 км 3/0
[Ci fib]
+22.6 +13.5 56 +26 +34 жарко 1018.8 906.3
00 18.12 ЮВ 2 20 км 3/0
[Ac und]
+20.8 +14.7 68 +24 +24 комфорт 1016.4 905.7 +3.0 +23.4
03 18.12 ЮВ 2 10 км ясно +14.4 +11.4 82 +14 +14 1018.2 908.2
12 18.12 СВ 1 10 км ясно +6.6 +5.4 92 +5 +5 1019.7 906.7 +5.8 +23.4
15 18.12 штиль 0 20 км 6/0
[Ac trans]
+8.4 +5.3 81 +8 +10 1021.7 907.6
18 18.12 С 1 25 км 8/0
[Ac trans]
+18.6 +12.6 68 +20 +27 1018.0 904.8 +5.3 +19.3
21 18.12 ЮЗ 2 20 км 8/0
[As trans]
+22.1 +14.2 61 +25 +29 комфорт 1011.6 900.2
00 19.12 В 1 20 км 8/0
[Ac trans]
+20.0 +12.2 61 +23 +23 комфорт 1010.5 900.5 +5.3 +23.1
03 19.12 В 2 10 км ясно +15.2 +12.1 82 +15 +15 1010.5 901.3

 

Местоположение метеостанции Rio Verde (Мексика): широта 21.93 долгота -99.98 высота над уровнем моря 983 м.

В архиве по умолчанию представлена погода в Rio Verde за последнюю неделю. Архивные данные за месяц целиком и за предыдущие месяцы, начиная с января 2011 года, Вы можете получить, выбрав интересующий диапазон дат из раскрывающегося списка и нажав кнопку "Ввод!".


*Определитесь, кто Вы:
робот инопланетянин человек

Внимание! Время в таблицах - всемирное. Для получения местного времени необходимо прибавить поправку, которая в Rio Verde равна -6 ч.

Смотрите также архив погоды в соседних городах и на ближайших метеорологических станциях:

Погода в San Luis Potosi (Мексика) (99 км)
Погода в Tamuin (Мексика) (126 км)
Погода в Matlapa (Мексика) (139 км)
Погода в Queretaro (Мексика) (156 км)
Погода в Guanajuato (Мексика) (163 км)
Погода в Lagos De Moreno (Мексика) (211 км)
Погода в Ciudad Victoria (Мексика) (218 км)
Погода в Tampico (Мексика) (222 км)
Погода в Pachuca (Мексика) (237 км)
Погода в Aguascalientes (Мексика) (240 км)

Пояснения к столбцам:

Ветер - указаны скорость ветра в м/с - средняя за 10 мин, порывы в срок и между сроками (в фигурных скобках) и направление, откуда дует ветер: С - северный, СВ - северо-восточный, В - восточный, ЮВ - юго-восточный, Ю - южный, ЮЗ - юго-западный, З - западный, СЗ - северо-западный.
Видимость - горизонтальная дальность видимости в метрах или километрах. При видимости от 1 до 10 км при отсутствии осадков обычно наблюдается дымка, при ухудшении видимости до 1 км и менее - туман. В сухую погоду видимость может ухудшаться дымом, пылью или мглою.
Явления - указаны атмосферные явления, наблюдавшиеся в срок или в последний час перед сроком; фигурными скобками обозначены явления, наблюдавшиеся между сроками (за 1-3 часа до срока); квадратными скобками обозначены град или гололедные отложения с указанием их диаметра в мм.
Облачность - указаны через наклонную черту общая и нижняя облачность в баллах и высота нижней границы облаков в метрах; квадратными скобками обозначены формы облаков: Ci - перистые, Cs - перисто-слоистые, Cc - перисто-кучевые, Ac - высококучевые, As - высокослоистые, Sc - слоисто-кучевые, Ns - слоисто-дождевые, Cu - кучевые, Cb - кучево-дождевые. Подробнее классификацию облаков см. в Атласе облаков (PDF).
T - Температура воздуха - температура, измеренная на высоте 2 м над землей.
Td - Температура точки росы - температура, при понижении до которой содержащийся в воздухе водяной пар достигнет насыщения.
f - Относительная влажность воздуха - влажноcть воздуха, измеренная на высоте 2 м над землей.
Te - Эффективная температура - температура, которую ощущает одетый по сезону человек в тени. Характеристика душности погоды. При расчете учитывается влияние влажности воздуха и скорости ветра на теплоощущения человека.
Tes - Эффективная температура на солнце - температура, которую ощущает человек, с поправкой на солнечный нагрев. Характеристика знойности погоды. Зависит от высоты солнца над горизонтом, облачности и скорости ветра. Ночью, в пасмурную погоду, а также при ветре 12 м/с и более поправка равна нулю.
P - Атмосферное давление - приведенное к уровню моря атмосферное давление.
Po - Атмосферное давление - измеренное на уровне метеостанции атмосферное давление.
Tmin - Минимальная температура - минимум температуры воздуха на высоте 2 м над землей.
Tmax - Максимальная температура - максимум температуры воздуха на высоте 2 м над землей.
R - Количество осадков - Количество выпавших осадков за период времени, мм. При наведении курсора мыши на число - период времени, за который выпало указанное количество осадков.
R24 - Количество осадков - Количество выпавших осадков за 24 часа, мм.
S - Снежный покров - Высота снежного покрова, см. При наведении курсора мыши на число - состояние снежного покрова и степень покрытия местности в баллах.